Zurück zum Katalog

STARLINK-4171

AktivKommunikationVLEO
NORAD 52878·PAYLOAD·🇺🇸 United States

Gestartet Jun 17, 2022 von Cape Canaveral Space Force Station

Loading…

Nächste Überflüge (nächste 24 Stunden)

TLE

AktuellSource: CelesTrak SupGP

Epoche: Sep 14, 2026, 22:10 UTC

1 52878C 22062BA  26257.92409722  .00013869  00000+0  40980-3 0  2576
2 52878  53.1563 229.4507 0001335  97.5342 130.8811 15.34381820    14

Verfolge STARLINK-4171 in Echtzeit mit AllMySat

Download on the App Store